This is the latest recevied weather packets stored in our database for station/object KI7JYE. If no packets are shown the sender has not sent any weather packets the latest 1 day(s).
| Time | Temp. | Humidity | Pressure | Rain* | Wind** | Luminosity | Snow |
|---|---|---|---|---|---|---|---|
| 1778016505 | 16.11° C | 74% | 1015.2 hPa | 0 mm | 0.89 m/s, 285° | 239 W/m² | - |
| 1778016202 | 16.67° C | 72% | 1015.1 hPa | 0 mm | 0.89 m/s, 275° | 256 W/m² | - |
| 1778015898 | 16.67° C | 74% | 1015.2 hPa | 0 mm | 0.45 m/s, 176° | 277 W/m² | - |
| 1778015596 | 16.11° C | 74% | 1015.3 hPa | 0 mm | 0.89 m/s, 347° | 270 W/m² | - |
| 1778015292 | 16.67° C | 75% | 1015.3 hPa | 0 mm | 0.89 m/s, 257° | 249 W/m² | - |
| 1778014989 | 16.11° C | 76% | 1015.2 hPa | 0 mm | 0 m/s | 247 W/m² | - |
| 1778014686 | 16.11° C | 74% | 1015.6 hPa | 0 mm | 0.45 m/s, 258° | 228 W/m² | - |
| 1778014385 | 16.11° C | 74% | 1015.3 hPa | 0 mm | 1.34 m/s, 267° | 202 W/m² | - |
| 1778014081 | 16.11° C | 75% | 1015.5 hPa | 0 mm | 0 m/s | 211 W/m² | - |
| 1778013779 | 16.11° C | 75% | 1015.3 hPa | 0 mm | 0.45 m/s, 239° | 213 W/m² | - |
| 1778013476 | 16.11° C | 73% | 1015.6 hPa | 0 mm | 1.34 m/s, 250° | 200 W/m² | - |
| 1778013173 | 16.11° C | 75% | 1015.5 hPa | 0 mm | 0 m/s | 193 W/m² | - |
| 1778012869 | 16.11° C | 75% | 1015.7 hPa | 0 mm | 0.45 m/s, 230° | 186 W/m² | - |
| 1778012565 | 16.11° C | 74% | 1015.7 hPa | 0 mm | 0 m/s | 183 W/m² | - |
| 1778012261 | 16.11° C | 74% | 1015.8 hPa | 0 mm | 0.45 m/s, 232° | 182 W/m² | - |
| 1778011959 | 16.11° C | 75% | 1015.5 hPa | 0 mm | 0.45 m/s, 238° | 180 W/m² | - |
| 1778011658 | 16.11° C | 75% | 1015.6 hPa | 0 mm | 0.45 m/s, 233° | 176 W/m² | - |
| 1778011354 | 15.56° C | 75% | 1015.6 hPa | 0 mm | 0.45 m/s, 232° | 187 W/m² | - |
| 1778011049 | 15.56° C | 78% | 1015.6 hPa | 0 mm | 0 m/s | 209 W/m² | - |
| 1778010747 | 16.11° C | 75% | 1015.7 hPa | 0 mm | 0.89 m/s, 247° | 216 W/m² | - |
| 1778010444 | 15.56° C | 76% | 1015.6 hPa | 0 mm | 0.89 m/s, 234° | 201 W/m² | - |
| 1778010141 | 16.11° C | 75% | 1015.6 hPa | 0 mm | 0 m/s | 177 W/m² | - |
| 1778009837 | 15.56° C | 76% | 1015.7 hPa | 0 mm | 0 m/s | 162 W/m² | - |
| 1778009534 | 15.56° C | 75% | 1015.9 hPa | 0 mm | 0 m/s | 155 W/m² | - |
| 1778009233 | 15.56° C | 75% | 1015.6 hPa | 0 mm | 0.89 m/s, 245° | 161 W/m² | - |
* Rain latest hour (hover to see other rain measurements)
** Current wind speed in m/s (hover to see current wind gust speed)